User: anonymous   Login
Location: Unspecified
(0.0000°N, 0.0000°E)
Time: 12:36:21
(UTC+01:00)
Language:

ADEOS II - Orbit

View from above orbital plane
View from above orbital plane
View from above satellite
View from above satellite

Ground track
Ground track

The orbit data is extracted from the following two-line orbital elements,

1 27597U 02056A   15031.04844216  .00000296  00000-0  13849-3 0  5106
2 27597 098.2805 031.7413 0001444 061.4418 342.9392 14.26992882631597
Epoch (UTC): 31 January 2015 01:09:45
Eccentricity: 0.0001444
inclination: 98.2805°
perigee height: 801 km
apogee height: 803 km
right ascension of ascending node: 31.7413°
argument of perigee: 61.4418°
revolutions per day: 14.26992882
mean anomaly at epoch: 342.9392°
orbit number at epoch: 63159

The dashed part of the orbit path shows where the satellite is in the earth's shadow,  

DLR